Aérodrome :
LOGIN :

S'inscrire | Disclaimer

   EN    FR    IT 

 










Légende :    VFR   VFR Marginal   IFR   IFR Intensif   IFR Très Intensif
Visi : 
Plafond : 
>= 8 km
>= 3000ft
5 à 8 km
1000 à 3000 ft
1500m à 5 km
500 à 1000 ft
800 à 1500m
200 à 500 ft
< 800m
< 200 ft
Symboles :   Orages  Brouillard  Fortes neiges  Fortes précipitations  Vent > 20 kt
SIGMETs :   Divers  Orages  Givrage  Turbulence  Onde Orograph.  Cendres Volcan.






- Altitude de l'aérodrome : 2555 ft
- Code IATA : ADJ


OJAM - Marka Int.

DERNIER METAR :
  • 310400Z 06003KT CAVOK 15/07 Q1018 NOSIG

METARs EXPIRÉS :
  • 310300Z 08003KT CAVOK 13/07 Q1018 NOSIG
  • 310200Z 06003KT CAVOK 14/07 Q1018 NOSIG

TAF TAF OJAM
Valide du 31 à 00h jusqu'au 01 à 06h UTC


302204Z 3100/0106 28008KT 5000 HZ NSC
PROB30
TEMPO 3110/3116 28014KT 4000 DU
FIR OJAC / Asie



MET'MAP, la Météo Aéronautique d'un coup d'oeil ! - Copyright ORBIFLY Décembre 2007 - Disclaimer

ORBIFLY MET'MAP TEAM :

Programmation & Développement : Alexandra Zaïnal
Sur une idée originale de : Baudouin d'Aumeries
Assistance à la programmation : Marc-Olivier Méhu
Soutien technique & logistique : Manuel Goepfert

Contact : metmap@orbifly.com




SOURCES & CREDITS :

   NOAA